Вернуться в каталог

STARLINK-34938

АктивенСвязьSSO
NORAD 65236·PAYLOAD·🇺🇸 United States

Запущен Aug 18, 2025 с Vandenberg Space Force Base

Loading…

Ближайшие Пролёты (ближайшие 24 часа)

TLE

СвежийSource: CelesTrak SupGP

Эпоха: Sep 14, 2026, 22:42 UTC

1 65236C 25179B   26257.94631944  .00050945  00000+0  15817-2 0  2571
2 65236  97.2836 297.3296 0001394  89.7216 153.3260 15.33408423    11

Отслеживайте STARLINK-34938 в реальном времени с AllMySat

Download on the App Store